Terminal Aerodrome Forecast
Issued by NWS

Current Version | Previous Version | Graphics & Text | Print | Product List | Glossary On
Versions: 1 2 3 4 5 6 7 8 9 10 11 12 13
000
FTUS41 KPBZ 041728
TAFMGW
TAF
KMGW 041728Z 0418/0518 22009G16KT P6SM BKN250
     FM050400 VRB04KT P6SM BKN090
     FM051300 22005KT P6SM -SHRA OVC035=

USA.gov is the U.S. government's official web portal to all federal, state and local government web resources and services.